Regional Weather Roundup
Issued by NWS Little Rock, AR

Current Version | Previous Version | Text Only | Print | Product List | Glossary On
Versions: 1 2 3 4 5 6 7 8 9 10 11 12 13 14 15 16 17 18 19 20 21 22 23 24 25 26 27 28 29 30 31 32 33 34 35 36 37 38 39 40 41 42 43 44 45 46 47 48 49 50
000
ASUS44 KLZK 261605
RWRLZK

WEATHER ROUNDUP FOR ARKANSAS
NATIONAL WEATHER SERVICE LITTLE ROCK AR
1100 AM CDT SUN MAR 26 2017

NOTE: "FAIR" INDICATES FEW OR NO CLOUDS BELOW 12,000 FEET WITH NO
SIGNIFICANT WEATHER AND/OR OBSTRUCTIONS TO VISIBILITY.

ARZ001-003-010-029-261700-
NORTHWEST ARKANSAS

CITY           SKY/WX    TMP DP  RH WIND       PRES   REMARKS
FAYETTEVILLE   SUNNY     58  49  72 S5        29.96S
FORT SMITH     SUNNY     61  47  59 E6        29.97S
HARRISON       SUNNY     57  45  64 W3        29.96S
BENTONVILLE    SUNNY     54  45  71 S7        29.98R
ROGERS         SUNNY     55  46  71 W7        29.97S
SILOAM SPGS    SUNNY     54  48  82 CALM      29.96S
HIGHFILL       MOSUNNY   54  48  80 W5        29.96S
SPRINGDALE     MOSUNNY   54  46  76 CALM      29.98S
$$

ARZ004-005-016-261700-
NORTH CENTRAL ARKANSAS

CITY           SKY/WX    TMP DP  RH WIND       PRES   REMARKS
BATESVILLE     SUNNY     63  46  55 S5        29.99S
FLIPPIN        PTSUNNY   57  43  58 SE5       29.96R
MTN HOME       PTSUNNY   54  45  71 CALM      29.97R
$$

ARZ040-041-261700-
WEST CENTRAL ARKANSAS

CITY           SKY/WX    TMP DP  RH WIND       PRES   REMARKS
MENA           SUNNY     64  55  72 CALM      29.98S
MOUNT IDA      SUNNY     61  50  67 CALM      29.96S
$$

ARZ009-017-025-026-028-261700-
NORTHEAST ARKANSAS

CITY           SKY/WX    TMP DP  RH WIND       PRES   REMARKS
CORNING        CLOUDY    57  48  72 W8        29.99S
JONESBORO      SUNNY     62  48  60 SW10      29.98S
NEWPORT        SUNNY     61  48  62 S8          N/A
WALNUT RIDGE   MOSUNNY   61  45  55 W7        29.99R
BLYTHEVILLE    SUNNY     62  53  72 SW10      29.99R
$$

ARZ022-023-033-042-044-261700-
CENTRAL ARKANSAS

CITY           SKY/WX    TMP DP  RH WIND       PRES   REMARKS
LITTLE ROCK    MOSUNNY   61  51  70 S3        30.00S
N LITTLE ROCK    N/A     62  51  68 CALM      30.01R
JACKSONVILLE   SUNNY     61  49  65 CALM      29.99S
CONWAY           N/A     61  50  67 CALM      29.98S
SEARCY         SUNNY     63  49  60 CALM      30.01S
HOT SPRINGS    SUNNY     62  51  67 SW3       30.00R
RUSSELLVILLE   SUNNY     59  47  64 S7        29.99R
CLINTON        FAIR      61  48  63 VRB3      29.99R
$$

ARZ036-261700-
EAST ARKANSAS

CITY           SKY/WX    TMP DP  RH WIND       PRES   REMARKS
WEST MEMPHIS   SUNNY     63  53  70 S6        29.99S
$$

ARZ050-053-066-070-073-261700-
SOUTHWEST ARKANSAS

CITY           SKY/WX    TMP DP  RH WIND       PRES   REMARKS
ARKADELPHIA    FAIR      61  52  72 CALM      30.01S
CAMDEN         SUNNY     68  50  52 S6        30.00S
TEXARKANA      SUNNY     68  53  58 SE6       29.98R
EL DORADO      SUNNY     69  52  54 VRB3      30.00R
DE QUEEN       SUNNY     63  54  72 VRB3      29.96F
$$

ARZ056-057-069-261700-
SOUTHEAST ARKANSAS

CITY           SKY/WX    TMP DP  RH WIND       PRES   REMARKS
PINE BLUFF     SUNNY     63  51  65 SE6       30.01R
STUTTGART      SUNNY     63  45  51 S3        30.01R
MONTICELLO     SUNNY     68  52  56 CALM      30.00S

$$





USA.gov is the U.S. government's official web portal to all federal, state and local government web resources and services.